[[{"header":{"parameterUnit":"m.s-1","parameterCategory":1,"la1":30.2991,"la2":30.254,"lo1":-89.0895,"lo2":-89.0444,"dy":0.0017,"dx":0.0017,"nx":28,"ny":28,"refTime":"2023-11-16T09:00:00:Z","depth":0,"parameterNumber":2,"parameterNumberName":"U-component_of_WINDS"},"data":[0,0,0,0,0,0,0,0,0,0,0,0,0,0,0,0,0,0,0,0,0,0,0,0,0,0,0,0,0,0,0,0,0,0,0,0,0,0,0,0,0,0,0,0,0,0,0,0,0,0,0,0,0,0,0,0,0,0,-1.0061,-1.0062,0,-1.0128,-1.0128,-1.0129,-1.0138,-1.0137,-1.0137,-1.0136,-1.0206,-1.0208,-1.0211,0,0,0,0,0,0,0,0,0,0,0,0,0,-0.9944,-0.9946,-1.0061,-1.0062,-1.0063,-1.0127,-1.0128,-1.0129,-1.0138,-1.0137,-1.0137,-1.0136,-1.0205,-1.0208,-1.0211,0,0,0,0,0,0,0,0,0,0,0,0,0,-1.0001,-0.9946,-1.0061,-1.0075,-1.0077,-1.0127,-1.0128,-1.013,-1.0138,-1.0137,-1.0136,-1.0136,-1.0204,-1.0208,-1.0211,-1.0253,0,0,-1.0222,-1.0224,0,0,0,0,0,0,0,0,-0.9998,-1.0005,-1.0072,-1.0074,-1.0076,-1.0124,-1.0112,-1.0171,-1.0139,-1.0115,-1.0136,-1.0135,-1.0179,-1.0185,-1.0199,-1.0256,-1.0259,-1.0223,-1.0225,-1.0226,-1.0228,0,0,0,0,0,0,0,-0.9994,-1.0002,-1.0087,-1.0073,-1.0076,-1.0079,-1.0086,-1.0124,-1.0152,-1.0117,-1.0118,-1.0126,-1.018,-1.0196,-1.0201,-1.026,-1.0223,-1.0226,-1.0228,-1.023,-1.0355,-1.0356,0,0,0,0,0,0,-0.9987,-0.9999,-1.0085,-1.0089,-1.0034,-1.0081,-1.0089,-1.0109,-1.0151,-1.0157,-1.0126,-1.0126,-1.019,-1.0197,-1.0204,-1.0256,-1.0226,-1.023,-1.0232,-1.0354,-1.0355,-1.0357,0,0,0,0,0,0,-0.9984,-0.9995,-1.0083,-1.0044,-1.0056,-1.0084,-1.0107,-1.0111,-1.0127,-1.0158,-1.0163,-1.0137,-1.019,-1.0199,-1.0241,-1.0258,-1.0232,-1.0235,-1.0353,-1.0354,-1.0356,-1.036,0,0,0,0,0,0,-0.9981,-0.9994,-1.0009,-1.0045,-1.0058,-1.0118,-1.0108,-1.0113,-1.0133,-1.0133,-1.017,-1.0175,-1.019,-1.0235,-1.0244,-1.0263,-1.0238,-1.0351,-1.0353,-1.0355,-1.0359,-1.0362,-1.0365,0,0,0,0,0,-0.9977,-1.0008,-1.001,-1.002,-1.0078,-1.0119,-1.0126,-1.0142,-1.0134,-1.0151,-1.0171,-1.0174,-1.0255,-1.0239,-1.025,-1.027,-1.035,-1.0353,-1.0355,-1.0357,-1.0361,-1.0365,0,0,0,0,0,0,-0.9974,-1.0013,-1.0015,-1.0059,-1.0085,-1.012,-1.0141,-1.0146,-1.0176,-1.0174,-1.0193,-1.0201,-1.0243,-1.026,-1.0242,-1.0313,-1.0302,-1.0307,-1.03,-1.0304,-1.0307,-1.0302,-1.0241,0,0,0,0,0,-0.9978,-1.0008,-1.004,-1.0075,-1.0088,-1.0112,-1.0131,-1.0141,-1.0169,-1.0181,-1.0204,-1.0232,-1.0264,-1.0285,-1.0316,-1.0361,-1.037,-1.038,-1.0383,-1.0385,-1.039,-1.0416,-1.0421,-1.0365,-1.0365,-1.0365,0,0,-0.9987,-1.0012,-1.003,-1.0075,-1.0097,-1.0128,-1.0122,-1.0155,-1.0178,-1.0186,-1.0227,-1.0245,-1.0278,-1.0322,-1.0343,-1.0338,-1.0407,-1.0389,-1.039,-1.0393,-1.0419,-1.0424,-1.0429,-1.0367,-1.0366,-1.0366,0,0,-1.002,-1.0042,-1.0074,-1.0096,-1.0129,-1.0145,-1.0153,-1.0187,-1.0199,-1.0241,-1.0248,-1.0276,-1.033,-1.0354,-1.0373,-1.0415,-1.042,-1.0425,-1.0441,-1.0466,-1.0471,-1.0475,-1.0491,-1.0497,-1.0429,-1.0429,-1.0429,0,-1.0028,-1.0074,-1.009,-1.0123,-1.0143,-1.0151,-1.0184,-1.0205,-1.0247,-1.0261,-1.0255,-1.0324,-1.0346,-1.0397,-1.0407,-1.0422,-1.0432,-1.0421,-1.0469,-1.0473,-1.0477,-1.0493,-1.0499,-1.0429,-1.0429,-1.0429,-1.0429,0,-1.0083,-1.0115,-1.0137,-1.0177,-1.0199,-1.0232,-1.0253,-1.0275,-1.0283,-1.0299,-1.0342,-1.037,-1.0407,-1.0419,-1.0427,-1.0471,-1.0467,-1.0465,-1.0454,-1.0483,-1.0498,-1.0504,-1.043,-1.043,-1.043,-1.043,0,0,-1.0116,-1.0164,-1.0172,-1.0191,-1.0228,-1.0254,-1.0287,-1.0323,-1.0341,-1.037,-1.0399,-1.0445,-1.0443,-1.0465,-1.0476,-1.0498,-1.0532,-1.0493,-1.0494,-1.05,-1.0583,-1.0585,-1.0592,-1.0534,-1.0535,-1.0536,-1.0581,0,-1.0154,-1.0214,-1.0229,-1.028,-1.031,-1.0319,-1.0348,-1.0375,-1.0392,-1.042,-1.0439,-1.0472,-1.0466,-1.048,-1.0502,-1.0523,-1.0549,-1.052,-1.0563,-1.0564,-1.0555,-1.06,-1.0602,-1.0642,-1.0586,-1.0587,-1.0588,0,-1.0207,-1.0236,-1.029,-1.0324,-1.0338,-1.0364,-1.0399,-1.0426,-1.0456,-1.0467,-1.0491,-1.05,-1.0536,-1.0523,-1.0574,-1.0554,-1.0573,-1.0586,-1.0588,-1.0594,-1.0579,-1.0607,-1.0656,-1.0662,-1.0598,-1.0597,-1.0596,0,-1.0227,-1.028,-1.032,-1.0335,-1.0376,-1.0394,-1.0412,-1.0441,-1.0462,-1.0493,-1.0507,-1.0541,-1.0561,-1.0587,-1.0606,-1.0595,-1.0656,-1.0644,-1.0667,-1.0666,-1.068,-1.0679,-1.0733,-1.069,-1.069,-1.069,-1.069,0,-1.0268,-1.0301,-1.0329,-1.0354,-1.0391,-1.0409,-1.0446,-1.0464,-1.049,-1.0519,-1.0528,-1.0555,-1.0578,-1.0608,-1.0623,-1.0663,-1.0672,-1.0682,-1.0686,-1.0682,-1.0681,-1.0695,-1.0693,-1.0692,-1.0691,-1.0691,-1.0691,0,-1.0298,-1.0317,-1.0361,-1.0396,-1.0406,-1.0432,-1.0462,-1.0487,-1.0503,-1.054,-1.055,-1.0576,-1.0613,-1.0634,-1.0679,-1.0689,-1.0735,-1.0737,-1.0724,-1.0726,-1.0748,-1.0746,-1.0814,-1.0824,-1.0774,-1.0774,-1.0774,0,-1.0323,-1.0349,-1.0386,-1.0406,-1.0424,-1.0456,-1.0477,-1.0496,-1.0518,-1.0555,-1.0576,-1.0612,-1.0643,-1.07,-1.0724,-1.076,-1.0763,-1.0785,-1.0769,-1.0764,-1.0765,-1.0764,-1.0767,-1.0788,-1.0788,-1.0788,-1.0789,0,-1.0367,-1.0376,-1.0406,-1.044,-1.0466,-1.0494,-1.0521,-1.0537,-1.056,-1.0585,-1.0622,-1.0645,-1.0692,-1.0729,-1.0766,-1.0786,-1.0792,-1.0793,-1.0801,-1.0798,-1.079,-1.0796,-1.0733,-1.0792,-1.0792,-1.0791,-1.0791,-1.0791,-1.0396,-1.042,-1.045,-1.0484,-1.0507,-1.0533,-1.0558,-1.0578,-1.0609,-1.0648,-1.0657,-1.0696,-1.0727,-1.0778,-1.0798,-1.083,-1.0826,-1.0837,-1.084,-1.0842,-1.0844,-1.0784,-1.0837,-1.0837,-1.0837,-1.0837,-1.0837,0,-1.0442,-1.0462,-1.0492,-1.0531,-1.0558,-1.056,-1.0591,-1.0614,-1.0648,-1.0676,-1.0706,-1.0749,-1.0785,-1.0812,-1.0849,-1.0869,-1.0873,-1.0879,-1.0878,-1.0883,-1.0844,-1.0834,-1.0875,-1.0875,-1.0875,-1.0875,-1.0875,-1.0875,-1.0468,-1.0509,-1.0521,-1.0573,-1.0593,-1.0632,-1.0649,-1.0674,-1.0696,-1.0744,-1.0774,-1.0791,-1.0819,-1.0858,-1.0892,-1.0899,-1.0913,-1.0918,-1.0926,-1.0889,-1.0885,-1.0881,-1.0873,-1.092,-1.0921,-1.0962,-1.0962,-1.0963]},{"header":{"parameterUnit":"m.s-1","parameterCategory":1,"la1":30.2991,"la2":30.254,"lo1":-89.0895,"lo2":-89.0444,"dy":0.0017,"dx":0.0017,"nx":28,"ny":28,"refTime":"2023-11-16T09:00:00:Z","depth":0,"parameterNumber":3,"parameterNumberName":"V-component_of_WINDS"},"data":[0,0,0,0,0,0,0,0,0,0,0,0,0,0,0,0,0,0,0,0,0,0,0,0,0,0,0,0,0,0,0,0,0,0,0,0,0,0,0,0,0,0,0,0,0,0,0,0,0,0,0,0,0,0,0,0,0,0,-3.5144,-3.5144,0,-3.5135,-3.5135,-3.5135,-3.5101,-3.5101,-3.51,-3.5099,-3.5088,-3.5088,-3.5089,0,0,0,0,0,0,0,0,0,0,0,0,0,-3.5133,-3.5133,-3.5144,-3.5144,-3.5144,-3.5135,-3.5135,-3.5135,-3.5102,-3.5101,-3.51,-3.5099,-3.5088,-3.5088,-3.5089,0,0,0,0,0,0,0,0,0,0,0,0,0,-3.5132,-3.5133,-3.5144,-3.5126,-3.5125,-3.5135,-3.5135,-3.5135,-3.5102,-3.5101,-3.51,-3.5098,-3.5088,-3.5088,-3.5089,-3.5115,0,0,-3.509,-3.5091,0,0,0,0,0,0,0,0,-3.5132,-3.5133,-3.5129,-3.5128,-3.5126,-3.5118,-3.5127,-3.5128,-3.5102,-3.511,-3.5099,-3.5098,-3.5099,-3.5098,-3.5099,-3.5114,-3.5114,-3.5091,-3.5091,-3.5091,-3.5091,0,0,0,0,0,0,0,-3.5132,-3.5133,-3.514,-3.5129,-3.5127,-3.5119,-3.5117,-3.5127,-3.5111,-3.511,-3.5107,-3.5107,-3.5098,-3.5098,-3.5098,-3.5113,-3.5091,-3.5091,-3.5091,-3.5092,-3.5151,-3.5152,0,0,0,0,0,0,-3.5135,-3.5133,-3.5141,-3.514,-3.5126,-3.512,-3.5118,-3.5122,-3.5111,-3.5108,-3.5108,-3.5105,-3.5098,-3.5098,-3.5098,-3.5128,-3.5091,-3.5092,-3.5092,-3.515,-3.5151,-3.5152,0,0,0,0,0,0,-3.5135,-3.5136,-3.5141,-3.5136,-3.5136,-3.5121,-3.5125,-3.5122,-3.5123,-3.5109,-3.5106,-3.5111,-3.5097,-3.5097,-3.5111,-3.5127,-3.5092,-3.5092,-3.5148,-3.515,-3.5152,-3.5189,0,0,0,0,0,0,-3.5135,-3.5136,-3.5146,-3.5136,-3.5136,-3.5155,-3.5126,-3.5123,-3.5124,-3.5121,-3.5112,-3.5109,-3.5096,-3.511,-3.5112,-3.5127,-3.5093,-3.5147,-3.5149,-3.5151,-3.5186,-3.5192,-3.5196,0,0,0,0,0,-3.5134,-3.5156,-3.5147,-3.5148,-3.5148,-3.5156,-3.5156,-3.5141,-3.5126,-3.5135,-3.5127,-3.511,-3.5126,-3.5112,-3.5113,-3.5129,-3.5145,-3.5148,-3.5151,-3.5184,-3.519,-3.5196,0,0,0,0,0,0,-3.5166,-3.5154,-3.5144,-3.5163,-3.5161,-3.515,-3.5162,-3.5148,-3.5149,-3.5146,-3.5127,-3.5125,-3.5142,-3.5137,-3.5123,-3.5155,-3.5133,-3.5136,-3.5157,-3.5164,-3.5169,-3.5169,-3.5093,0,0,0,0,0,-3.5176,-3.5183,-3.5172,-3.519,-3.519,-3.5176,-3.5179,-3.5168,-3.5164,-3.5163,-3.5155,-3.5152,-3.5157,-3.516,-3.5163,-3.5185,-3.5183,-3.5197,-3.5202,-3.5207,-3.5209,-3.5222,-3.5228,-3.5161,-3.5161,-3.5161,0,0,-3.5195,-3.5189,-3.5195,-3.5197,-3.5194,-3.5202,-3.5175,-3.5185,-3.5191,-3.5164,-3.5177,-3.5172,-3.5167,-3.5186,-3.5194,-3.5182,-3.5228,-3.521,-3.5214,-3.5214,-3.5225,-3.5232,-3.5237,-3.5163,-3.5163,-3.5163,0,0,-3.5234,-3.5231,-3.5246,-3.5244,-3.524,-3.5231,-3.5235,-3.5227,-3.5223,-3.5236,-3.5217,-3.5223,-3.5231,-3.5229,-3.5229,-3.527,-3.5254,-3.5272,-3.5298,-3.5311,-3.5316,-3.532,-3.5335,-3.5341,-3.5274,-3.5274,-3.5275,0,-3.5258,-3.527,-3.5255,-3.5266,-3.5268,-3.5246,-3.5261,-3.526,-3.5257,-3.5258,-3.5246,-3.5256,-3.5252,-3.527,-3.528,-3.5281,-3.5285,-3.5272,-3.5316,-3.5321,-3.5325,-3.5339,-3.5344,-3.5277,-3.5276,-3.5276,-3.5276,0,-3.53,-3.5309,-3.5321,-3.5321,-3.5324,-3.5337,-3.5324,-3.5329,-3.5318,-3.5311,-3.5325,-3.5319,-3.5321,-3.5325,-3.5313,-3.5342,-3.5335,-3.532,-3.5297,-3.5333,-3.5346,-3.5351,-3.528,-3.5279,-3.5278,-3.5278,0,0,-3.5357,-3.535,-3.5355,-3.5355,-3.535,-3.5356,-3.5369,-3.5372,-3.5377,-3.5376,-3.5386,-3.5395,-3.5381,-3.5381,-3.537,-3.5381,-3.5414,-3.5364,-3.5364,-3.5374,-3.5445,-3.5457,-3.5463,-3.5404,-3.5405,-3.5406,-3.5446,0,-3.5394,-3.5416,-3.5404,-3.5427,-3.5435,-3.5415,-3.5426,-3.5425,-3.5419,-3.5425,-3.5418,-3.5424,-3.5405,-3.5406,-3.5416,-3.5408,-3.5428,-3.5405,-3.5413,-3.5414,-3.5415,-3.547,-3.5481,-3.5519,-3.5451,-3.5452,-3.5452,0,-3.544,-3.5443,-3.5468,-3.5463,-3.5466,-3.5476,-3.5479,-3.5485,-3.5483,-3.5478,-3.5479,-3.5466,-3.5478,-3.5457,-3.5473,-3.5458,-3.5461,-3.5458,-3.5459,-3.5459,-3.5435,-3.5471,-3.553,-3.5536,-3.546,-3.5459,-3.5459,0,-3.548,-3.549,-3.5506,-3.5507,-3.5501,-3.5509,-3.5507,-3.5505,-3.5508,-3.551,-3.5512,-3.5516,-3.5517,-3.552,-3.5508,-3.5494,-3.5527,-3.5504,-3.5523,-3.5523,-3.553,-3.5529,-3.5591,-3.5532,-3.5532,-3.5532,-3.5532,0,-3.5522,-3.5538,-3.5524,-3.5534,-3.5551,-3.5537,-3.5555,-3.5551,-3.5549,-3.5558,-3.5541,-3.5549,-3.5533,-3.554,-3.5531,-3.5546,-3.5547,-3.5543,-3.5541,-3.5545,-3.5545,-3.5546,-3.5543,-3.5534,-3.5533,-3.5533,-3.5533,0,-3.5569,-3.556,-3.5576,-3.5571,-3.557,-3.5583,-3.5578,-3.5587,-3.5581,-3.5592,-3.5594,-3.5584,-3.5591,-3.558,-3.5586,-3.558,-3.5602,-3.5595,-3.5602,-3.56,-3.562,-3.5618,-3.5683,-3.5691,-3.5628,-3.5628,-3.5629,0,-3.5596,-3.5608,-3.5605,-3.561,-3.5609,-3.5618,-3.5622,-3.5609,-3.5614,-3.5614,-3.5623,-3.5629,-3.5633,-3.5646,-3.5639,-3.5644,-3.5637,-3.566,-3.5638,-3.5642,-3.5638,-3.5637,-3.5638,-3.5664,-3.5665,-3.5665,-3.5666,0,-3.5646,-3.5642,-3.5648,-3.5654,-3.5659,-3.5662,-3.5664,-3.5669,-3.5656,-3.5662,-3.5671,-3.5674,-3.5681,-3.5688,-3.5691,-3.5689,-3.5675,-3.5673,-3.5678,-3.5682,-3.5686,-3.5684,-3.5615,-3.5671,-3.5671,-3.5671,-3.567,-3.567,-3.5684,-3.5694,-3.5694,-3.5702,-3.5702,-3.5705,-3.5714,-3.5709,-3.5716,-3.5722,-3.5714,-3.5724,-3.5723,-3.5727,-3.5726,-3.5734,-3.5724,-3.5731,-3.5732,-3.5734,-3.5737,-3.5685,-3.5735,-3.5734,-3.5734,-3.5734,-3.5734,0,-3.5733,-3.5732,-3.574,-3.5744,-3.5751,-3.5739,-3.5741,-3.5747,-3.5757,-3.5758,-3.5763,-3.5773,-3.578,-3.5774,-3.578,-3.5788,-3.5782,-3.579,-3.5789,-3.5788,-3.5746,-3.5741,-3.5794,-3.5794,-3.5794,-3.5794,-3.5794,-3.5794,-3.5759,-3.5776,-3.5772,-3.5789,-3.5788,-3.5799,-3.5802,-3.5804,-3.5805,-3.5818,-3.5824,-3.582,-3.5819,-3.5824,-3.583,-3.5828,-3.5831,-3.5841,-3.5837,-3.5797,-3.5791,-3.5786,-3.5781,-3.5842,-3.5842,-3.5879,-3.588,-3.588]}]]